Location: Unspecified
(0.0000°N, 0.0000°E)
Time: 00:17:11
(UTC+00:00)

A-11 Canister half - Pass Details

Date: 16 February 2023
Orbit: 1526 x 1682 km, 47.3° (Epoch: 29 March)

Event Time Altitude Azimuth Distance (km) Brightness Sun altitude
Rises 23:32:08 0° 229° (SW) 4,857 11.8 -74.0°
Enters shadow 23:32:17 - 229° (SW) 4,811 11.8 -74.0°
Reaches altitude 10° 23:35:22 10° 232° (SW) 3,848 - -74.5°
Maximum altitude 23:44:53 58° 309° (NW) 1,799 - -75.9°
Drops below altitude 10° 23:54:07 10° 27° (NNE) 3,722 - -76.9°
Sets 23:57:13 0° 31° (NNE) 4,689 - -77.2°
